Home > Weather > Hialeah > Past weeks

Flag for USA Past Weather in Hialeah, Florida, USA — Yesterday and Last 2 Weeks

Now
83 °F

Sunny.


Feels Like: 88 °F
Forecast: 78 / 89 °F
Wind: 8 mph from East

Location: Opa Locka Airport

Current Time: Jul 24, 2016 at 8:28:26 PM

Latest Report: Jul 24, 2016 at 7:53 PM


Visibility: 10 mi

Pressure: 30.05 "Hg

Humidity: 70%

Dew Point: 72 °F

Location of HialeahLocation

Past Weather in Hialeah — Graph

°F

Hialeah Temperature Yesterday

Maximum temperature yesterday: 90 °F (at 3:03 PM)
Minimum temperature yesterday: 76 °F (at 5:53 AM)
Average temperature yesterday: 82 °F

High & Low Weather Summary for the Past Weeks

 TemperatureHumidityPressure
High94 °F (Jul 12, 2:53 PM)94% (Jul 16, 6:53 AM)30.21 "Hg (Jul 16, 6:53 AM)
Low76 °F (Jul 16, 2:53 AM)49% (Jul 10, 2:53 PM)30.00 "Hg (Jul 15, 6:53 PM)
Average84 °F73%30.09 "Hg
* Reported Jul 9 6:53 PM — Jul 24 6:53 PM, Hialeah, Weather by CustomWeather, © 2016

Note: Actual official high and low records may vary slightly from our data, if they occured in-between our weather recording intervals... More about our weather records

Advertising

Hialeah Weather History for the Previous 24 Hours

Scroll right to see more
 ConditionsComfort  
Time TempWeatherWind HumidityBarometerVisibility
6:53 PM
Sun, Jul 24
85 °FSunny.7 mph59%30.03 "Hg10 mi
5:53 PM85 °FSunny.5 mph63%30.03 "Hg10 mi
4:53 PM85 °FSunny.9 mph61%30.03 "Hg10 mi
3:53 PM83 °FScattered clouds.5 mph65%30.07 "Hg10 mi
2:53 PM84 °FPassing clouds.7 mph63%30.06 "Hg10 mi
1:53 PM84 °FSunny.12 mph70%30.05 "Hg10 mi
12:53 PM80 °FScattered clouds.12 mph79%30.07 "Hg10 mi
11:53 AM79 °FPassing clouds.17 mph77%30.09 "Hg10 mi
10:53 AM84 °FSunny.No wind72%30.07 "Hg10 mi
9:53 AM83 °FSunny.3 mph77%30.06 "Hg10 mi
8:53 AM80 °FSunny.3 mph81%30.06 "Hg10 mi
7:53 AM79 °FSunny.No wind84%30.06 "Hg10 mi
6:53 AM78 °FClear.No wind84%30.04 "Hg10 mi
5:53 AM78 °FClear.No wind84%30.03 "Hg10 mi
4:53 AM78 °FClear.No wind87%30.01 "Hg10 mi
3:53 AM79 °FClear.3 mph82%30.02 "Hg10 mi
2:53 AM79 °FPassing clouds.No wind84%30.03 "Hg10 mi
1:53 AM79 °FPassing clouds.No wind82%30.04 "Hg10 mi
12:53 AM80 °FLight rain. Passing clouds.3 mph79%30.03 "Hg10 mi
11:53 PM
Sat, Jul 23
80 °FThundershowers. Passing clouds.7 mph74%30.07 "Hg10 mi
10:53 PM79 °FClear.3 mph72%30.06 "Hg10 mi
9:53 PM81 °FPassing clouds.6 mph74%30.04 "Hg10 mi
8:53 PM83 °FThundershowers. Scattered clouds.6 mph72%30.03 "Hg10 mi
Weather by CustomWeather, © 2016

See weather overviewHow to use our weather pages